Location: Erhart
(41.1998°N, 81.9743°W)
Time: 01:02:10
(UTC+00:00)

Daily predictions for brighter satellites

Satellite Brightness Start Highest point End
(mag) Time Altitude Azimuth Time Altitude Azimuth Time Altitude Azimuth
Sich 1 3.5 01:00:56 10° N 01:05:05 43° ENE 01:09:15 10° SSE
MetOp-A 4.2 01:01:36 10° SSE 01:06:57 87° ENE 01:12:20 10° NNW
Cosmos 2084 3.3 01:05:10 10° SSW 01:09:14 65° ESE 01:13:24 10° NE
Intercosmos 24 3.9 01:07:06 10° SSE 01:10:39 47° E 01:14:07 10° NNE
CZ-4C R/B 3.7 01:04:38 10° NNW 01:11:22 40° NE 01:19:03 10° ESE
SJ-6B 2.8 01:07:35 10° SSE 01:11:26 67° ENE 01:15:26 10° N
Cosmos 1354 Rocket 4.0 01:06:29 10° S 01:11:37 64° ESE 01:16:50 10° NNE
ATLAS 5 CENTAUR R/B 2.5 01:06:48 10° NNW 01:12:31 71° NE 01:19:13 10° SE
CSL-04 Rocket 4.4 01:08:45 10° S 01:13:55 55° W 01:19:12 10° NNW
Cosmos 1151 Rocket 3.9 01:12:02 10° SSE 01:15:53 32° E 01:19:47 10° NNE
NOSS 3-3 (A) 3.8 01:13:35 10° SSW 01:19:10 71° ESE 01:25:30 10° NE
NOSS 3-3 (C) 3.8 01:13:42 10° SSW 01:19:17 71° ESE 01:25:36 10° NE
BREEZE-M R/B 4.2 01:21:37 10° W 01:24:12 26° NNW 01:26:20 10° NE
Cosmos 1745 Rocket 4.0 01:22:20 10° N 01:28:33 84° E 01:34:40 10° S
BREEZE M DEB (TANK) 4.3 01:24:01 10° WNW 01:29:55 27° NNW 01:32:30 10° NE
SL-4 R/B 4.4 01:27:28 10° W 01:30:26 18° SW 01:33:32 10° S
Cosmos 1709 Rocket 4.2 01:24:40 10° N 01:30:36 50° ENE 01:36:30 10° SSE
Cosmos 1833 Rocket 3.6 01:30:31 10° N 01:35:39 34° ENE 01:39:58 14° ESE
USA 306 4.5 01:32:39 10° NW 01:36:21 27° NNE 01:40:01 10° E
Cosmos 1500 4.3 01:36:21 10° NNE 01:39:35 27° ENE 01:41:40 17° ESE
Meteor 1-25 Rocket 4.3 01:34:24 10° N 01:40:18 87° E 01:46:08 10° S
SPOT 3 Rocket 4.0 01:37:39 13° SE 01:41:58 45° ENE 01:46:51 10° N
Cosmos 773 Rocket 4.2 01:37:39 10° N 01:42:53 56° ENE 01:47:06 15° SE
Cosmos 1242 Rocket 3.0 01:39:24 10° SSW 01:42:55 62° W 01:46:27 10° N
USA 186 3.8 01:41:14 10° SW 01:43:01 18° W 01:44:46 10° NW
Resurs 01 Rocket 1.9 01:41:39 14° SE 01:45:18 50° ENE 01:49:36 10° N
GPS 2-04 Rocket1 3.4 01:42:56 10° WSW 01:46:46 37° S 01:49:13 19° ESE
S3M 4.5 01:41:00 10° SSW 01:47:19 66° W 01:53:38 10° N
Cosmos 783 Rocket 4.5 01:42:13 10° NNW 01:47:29 78° ENE 01:51:58 14° SSE
MOS 1 4.4 01:42:33 10° SSE 01:48:12 81° WSW 01:53:55 10° NNW
X-37B 0.9 01:49:35 10° WNW 01:52:42 53° SSW 01:54:18 25° SE
Cosmos 1515 Rocket 4.1 01:53:19 17° SSE 01:56:17 38° E 02:00:21 10° NNE
Cosmos 2315 Rocket 4.0 01:51:33 10° S 01:57:54 81° E 02:04:19 10° N
OBJECT-B 3.1 01:57:48 10° SSW 02:00:25 23° W 02:03:03 10° NW
Delta 2 Rocket 4.2 01:55:49 10° WSW 02:00:36 39° S 02:03:03 22° ESE
USA 307 4.0 02:00:06 10° NW 02:04:06 37° NNE 02:06:53 17° E
Cosmos 1633 Rocket 3.1 02:00:00 10° N 02:04:25 86° W 02:07:59 16° S
Cosmos 1328 Rocket 3.7 02:06:11 10° S 02:10:36 79° W 02:15:02 10° N
Cosmos 1271 Rocket 3.5 02:11:53 29° SE 02:12:57 34° E 02:16:37 10° NNE
ISS -1.7 02:12:39 10° SSW 02:13:27 15° SSW 02:13:27 15° SSW
Cosmos 1777 Rocket 4.2 02:11:58 10° SSW 02:17:08 72° WNW 02:22:21 10° NNE
USA 308 3.7 02:13:46 10° NW 02:17:53 44° NNE 02:20:06 24° E
Terra 3.5 02:17:08 17° E 02:18:41 20° ENE 02:22:04 10° NNE
Cosmos 1470 Rocket 3.5 02:14:30 10° N 02:19:01 77° E 02:21:26 27° SSE
Cosmos 2082 Rocket 2.9 02:15:15 10° N 02:20:31 39° ENE 02:23:13 25° ESE
MetOp-B 4.1 02:18:34 23° SSE 02:22:00 81° ENE 02:27:24 10° NNW
Ariane Rocket 4.2 02:17:34 10° SSW 02:22:15 38° W 02:26:58 10° NNW
CARTOSAT-1 4.3 02:21:09 29° ESE 02:22:32 37° ENE 02:26:30 10° N
OE (NEXTSAT) 4.3 02:19:26 10° WNW 02:22:53 72° SSW 02:23:43 47° SE
CREW DRAGON DEMO-1 DEB 3.2 02:25:10 10° NW 02:27:42 43° NNE 02:27:46 42° NE
Cosmos 1437 4.4 02:25:59 10° SW 02:28:29 28° WNW 02:31:01 10° NNW
Tianhe-1 3.1 02:27:19 10° SW 02:28:15 17° SW 02:28:15 17° SW
ARIANE 5 R/B 2.9 02:31:08 37° ESE 02:32:27 51° ENE 02:36:40 10° N
Cosmos 1933 Rocket 3.5 02:28:41 10° N 02:33:02 70° E 02:34:30 39° SSE
COSMOS 2406 3.2 02:28:19 10° NNW 02:34:01 84° WSW 02:36:56 30° SSE
Cosmos 1898 Rocket 4.3 02:34:06 30° ESE 02:34:35 30° E 02:39:11 10° NE
OAO 3 Rocket 4.1 02:30:48 10° SW 02:34:13 29° S 02:34:13 29° S
SPOT 5 3.7 02:33:36 31° ESE 02:35:24 41° ENE 02:40:21 10° N
Cosmos 1943 Rocket 3.4 02:39:12 23° E 02:39:12 23° E 02:43:09 10° NE
Cosmos 1812 3.3 02:37:34 19° SSW 02:40:05 56° W 02:43:54 10° N
Cosmos 990 Rocket 4.4 02:39:27 37° SE 02:40:37 42° ESE 02:45:34 10° NNE
SJ 16-02 1.5 02:36:31 11° SSW 02:40:41 72° WNW 02:45:07 10° NNE
Cosmos 2278 Rocket 2.8 02:36:54 10° SW 02:42:27 58° WNW 02:48:03 10° NNE
Cosmos 1666 2.5 02:41:10 10° N 02:44:54 88° E 02:45:30 62° S
Meteor 2-6 Rocket 4.3 02:41:00 15° SSW 02:45:35 74° W 02:51:08 10° N
Iridium 4 Rocket 3.7 02:42:49 29° S 02:45:55 79° E 02:51:51 10° N
Cosmos 2369 Rocket 4.1 02:51:16 13° E 02:51:16 13° E 02:52:37 10° ENE
USA 245 4.1 02:50:48 27° NW 02:50:48 27° NW 02:52:03 10° NNW
Meteor 1-27 Rocket 3.8 02:52:26 38° SSE 02:54:36 62° E 03:00:27 10° NNE
ATLAS 5 CENTAUR R/B 4.2 02:52:22 10° WNW 02:56:56 22° WSW 03:01:21 12° SSW
USA 305 2.7 02:52:49 10° NW 02:57:06 89° SW 02:57:39 67° SE
Cosmos 158 Rocket 3.7 02:54:30 10° NNW 02:59:25 86° ENE 03:00:36 53° SSE
CZ-4C R/B 3.4 02:52:57 10° NW 03:00:20 58° WSW 03:04:45 29° S
Cosmos 1544 4.3 02:59:29 10° NNE 03:02:04 30° NE 03:02:04 30° NE
NOSS 3-4 (A) 3.9 02:56:38 10° NW 03:03:47 86° ENE 03:07:09 38° SE
NOSS 3-4 (C) 3.9 02:56:44 10° NW 03:03:53 86° NE 03:07:15 38° SE
Cosmos 1340 Rocket 3.8 03:02:04 10° N 03:05:30 35° ENE 03:05:30 35° ENE
SPOT 1/Viking Rocket 4.2 03:03:30 29° SSW 03:05:52 50° W 03:10:55 10° NNW
Cosmos 1743 4.1 03:03:47 10° NNE 03:06:30 27° ENE 03:06:30 27° ENE
SL-24 DEB 4.1 03:14:41 66° ESE 03:14:57 68° E 03:19:33 10° N
Cosmos 2154 Rocket 3.9 03:10:10 10° N 03:16:31 84° E 03:18:30 47° SSE
USA 306 3.0 03:12:20 10° NW 03:16:24 62° WSW 03:16:24 62° WSW
ATLAS 2AS CENTAUR R/B 2.9 03:09:57 10° NNW 03:17:14 64° NE 03:19:41 41° ESE
Cosmos 2112 Rocket 4.2 03:12:54 10° NNW 03:18:12 58° ENE 03:19:01 52° ESE
Cosmos 1833 Rocket 3.8 03:14:28 10° NW 03:19:32 35° WSW 03:21:40 26° SW
Resurs 01 Rocket 4.2 03:19:30 10° SW 03:22:03 15° W 03:24:36 10° NW
Cosmos 2228 Rocket 3.6 03:21:23 43° SW 03:22:29 55° W 03:26:53 10° N
Cosmos 2184 Rocket 4.4 03:17:21 10° NNW 03:23:26 58° W 03:26:01 34° SSW
Nadezhda 1 Rocket 4.1 03:21:49 35° SSW 03:24:39 77° W 03:30:55 10° N
Cosmos 1536 2.9 03:20:53 10° N 03:24:37 74° NNW 03:24:37 74° NNW
Meteor 1-11 Rocket 4.0 03:20:24 10° NNW 03:26:19 67° W 03:28:07 45° SSW
Spot 2 Rocket 4.5 03:28:09 32° SW 03:29:39 39° W 03:34:23 10° NNW
ERS-1 Rocket 3.2 03:29:55 50° SW 03:30:49 59° W 03:35:48 10° NNW
Cosmos 1937 Rocket 3.3 03:33:12 74° ESE 03:33:19 75° ESE 03:38:29 10° NNE
Cosmos 1869 Rocket 4.2 03:38:13 10° NNW 03:42:22 46° W 03:42:25 46° W
Cosmos 2297 3.8 03:42:08 44° SW 03:44:00 74° WNW 03:49:42 10° NNE
USA 307 4.2 03:40:06 10° WNW 03:42:59 32° W 03:42:59 32° W
Cosmos 1680 Rocket 3.5 03:39:17 10° NNW 03:44:36 72° WSW 03:44:59 68° SW
Cosmos 858 Rocket 4.4 03:49:17 77° SW 03:49:37 82° WNW 03:54:53 10° NNE
Cosmos 2181 Rocket 3.9 03:53:39 65° ESE 03:54:08 67° E 04:00:12 10° NNE
Terra 2.4 03:56:01 46° WSW 03:56:05 46° W 04:00:40 10° NNW
Milstar 3 4.0 03:45:10 10° WSW 03:56:12 38° SSW 03:56:12 38° SSW
Cosmos 1707 Rocket 4.1 03:57:35 54° WNW 03:57:35 54° WNW 04:01:38 10° N
Cosmos 44 3.4 03:54:11 10° NW 03:59:24 76° W 03:59:24 76° W
Cosmos 2366 rocket 4.0 03:54:24 10° N 04:00:33 60° E 04:01:02 58° ESE
SL-24 R/B - RUBIN 2 4.0 03:55:37 10° NW 04:00:28 69° WNW 04:00:28 69° WNW
Cosmos 1461 3.5 04:04:49 62° N 04:04:49 62° N 04:08:53 10° NNE
Cosmos 2082 Rocket 3.4 03:59:38 10° NW 04:04:25 29° WSW 04:05:04 28° WSW
Cosmos 489 Rocket 4.3 04:05:43 10° NNW 04:11:59 78° ENE 04:12:29 73° ESE
Cosmos 1607 4.1 04:12:57 57° E 04:12:57 57° E 04:18:49 10° NE
Meteor 1-18 Rocket 4.1 04:12:38 86° ENE 04:12:38 86° ENE 04:18:11 10° N
ALOS 2 4.2 04:14:52 27° NE 04:14:52 27° NE 04:17:50 10° N
Cosmos 1818 3.5 04:08:56 10° NNW 04:14:10 81° NW 04:14:10 81° NW
Cosmos 2341 Rocket 4.1 04:08:57 10° NNW 04:15:18 67° W 04:16:10 60° SW
Centaur D AC-29 4.1 03:35:07 10° WSW 04:19:00 38° SSW 04:19:09 38° SSW
Cosmos 1943 Rocket 2.9 04:20:39 39° WSW 04:22:10 48° WNW 04:27:36 10° NNE
Cosmos 372 Rocket 4.1 04:24:06 67° NW 04:24:06 67° NW 04:28:50 10° NNE
Spot 4 4.3 04:26:03 60° NNE 04:26:03 60° NNE 04:30:09 10° N
Cosmos 2218 Rocket 3.9 04:19:55 10° N 04:26:15 84° W 04:26:40 78° SSW
ATLAS CENTAUR R/B 4.0 04:30:12 12° NE 04:30:12 12° NE 04:30:29 10° NE
Cosmos 1733 Rocket 4.3 04:25:46 10° NNW 04:28:48 36° NW 04:28:48 36° NW
Cosmos 2369 Rocket 2.2 04:33:00 74° WNW 04:33:00 74° WNW 04:38:37 10° NNE
Cosmos 1656 Rocket 3.9 04:38:22 60° NE 04:38:22 60° NE 04:42:55 10° NNE
Nadezhda 3 Rocket 4.2 04:41:02 55° E 04:41:02 55° E 04:46:52 10° NNE
BREEZE-M DEB (TANK) 4.3 04:27:47 10° WNW 04:42:17 65° NNE 04:43:38 49° ENE
SL-8 Rocket 4.4 04:38:41 10° NNW 04:44:45 50° W 04:45:15 49° WSW
Lacrosse 5 4.1 04:48:12 15° ENE 04:48:12 15° ENE 04:49:16 10° ENE
Cosmos 1125 Rocket 4.1 04:54:48 51° NE 04:54:48 51° NE 04:58:46 10° NNE
Gbstr 26 Del rocket 4.1 04:57:14 10° WNW 05:03:26 64° W 05:03:26 64° W
Cosmos 1867 4.1 05:05:36 53° WNW 05:05:40 53° NW 05:11:03 10° NNE
COBE Rocket 4.4 05:07:11 60° N 05:07:11 60° N 05:11:25 10° N
ATLAS 2AS CENTAUR R/B 4.0 05:01:54 10° NW 05:07:07 26° WSW 05:07:07 26° WSW
Nimbus 7 Rocket 4.4 05:04:25 10° NNE 05:09:58 77° NE 05:09:58 77° NE
Meteor 2-4 Rocket 4.4 05:12:56 45° WNW 05:12:58 45° WNW 05:18:21 10° N
Cosmos 2239 Rocket 4.4 05:10:01 10° N 05:16:19 84° ENE 05:16:19 84° ENE
RESURS DK-1 4.4 05:21:09 10° NNW 05:22:55 24° NW 05:22:55 24° NW
Meteor 1-13 Rocket 4.5 05:29:54 61° NW 05:29:54 61° NW 05:34:51 10° N
ISS -0.6 05:30:09 15° N 05:30:09 15° N 05:32:06 10° NNE
Cosmos 724 4.4 05:33:05 80° NW 05:33:05 80° NW 05:39:15 10° NNE
Meteor 1-23 Rocket 4.4 05:35:25 72° NE 05:35:25 72° NE 05:40:45 10° NNE
Cosmos 1934 Rocket 3.8 05:36:04 10° N 05:41:59 84° N 05:41:59 84° N
Cosmos 1339 Rocket 4.4 05:46:06 80° ESE 05:46:09 80° E 05:52:33 10° N
Cosmos 1269 Rocket 4.4 05:42:36 10° NNW 05:47:17 60° NNE 05:47:17 60° NNE
Cosmos 44 Rocket 4.0 05:43:32 10° NNW 05:47:34 54° NNW 05:47:34 54° NNW
Cosmos 2344 4.4 05:42:19 10° NW 05:52:03 86° WSW 05:58:24 37° SSE
Thor Agena Rocket 4.1 05:48:00 10° N 05:52:40 51° NW 05:52:40 51° NW
SeaSat 1 2.8 05:56:54 10° NNE 06:01:03 61° N 06:01:03 61° N
COSMOS 2455 3.9 05:56:14 10° NNW 06:01:53 40° NE 06:04:24 28° E
ATLAS CENTAUR R/B 3.8 06:06:18 15° NW 06:06:18 15° NW 06:08:17 10° N
Meteor 2-20 4.5 06:07:18 67° ESE 06:07:29 67° E 06:13:36 10° NNE
Cosmos 1727 Rocket 4.1 06:09:20 62° ESE 06:09:44 64° E 06:16:01 10° NNE
Meteor 1-22 Rocket 4.3 06:12:09 10° N 06:18:14 85° W 06:18:15 85° WSW
SL-16 R/B 3.9 06:15:31 21° ESE 06:18:47 34° ENE 06:24:18 10° N
Meteor 2-10 4.1 06:17:51 10° N 06:22:47 72° NE 06:22:47 72° NE
ADEOS II 4.3 06:21:45 10° ENE 06:24:40 15° E 06:25:56 14° ESE
Lacrosse 4 Rocket 3.9 06:26:20 15° E 06:26:20 15° E 06:28:03 10° ENE
Lacrosse 5 2.6 06:27:22 46° NW 06:27:36 46° NW 06:32:30 10° NE
Cosmos 1932 4.4 06:30:50 72° SE 06:31:11 74° ESE 06:37:31 10° NE
CZ-2D R/B 3.0 06:27:47 10° NNE 06:32:49 39° E 06:33:07 38° ESE
Resurs 1-4 Rocket 2.7 06:33:58 10° NNE 06:39:01 45° E 06:39:15 45° ESE
Helios 1A 4.1 06:42:57 39° NNW 06:42:57 39° NNW 06:45:39 10° NNW
USA 215 3.1 06:39:06 39° SE 06:41:51 86° SW 06:48:26 10° NW
MOZ.5/SAFIR/RUBIN 5/SL-8 4.0 06:42:26 67° NNE 06:42:26 67° NNE 06:46:38 10° N
Cosmos 1697 Rocket 3.6 06:42:23 36° ESE 06:42:47 36° ESE 06:47:52 10° NE
Cosmos 1459 Rocket 4.2 06:39:53 10° N 06:46:06 65° E 06:47:34 50° SE
Cosmos 1674 4.2 06:50:39 33° ENE 06:50:39 33° ENE 06:53:24 10° NNE
Cosmos 1726 3.9 06:46:53 10° NNW 06:48:43 28° NNW 06:48:43 28° NNW
Cosmos 1470 4.3 06:46:48 10° NNW 06:49:01 31° NNW 06:49:01 31° NNW
CZ-3B R/B 4.5 06:15:47 10° SW 06:51:21 80° NW 06:57:32 10° NE
USA 281 3.2 06:49:16 41° SE 06:51:48 78° ENE 06:58:23 10° NNW
Cosmos 1980 Rocket 3.8 06:54:10 22° ESE 06:55:34 24° ESE 06:59:59 10° NE
Cosmos 2173 Rocket 3.9 06:56:08 10° N 07:02:22 89° E 07:03:45 58° S
Timation 2 Rocket 4.0 06:59:37 10° NNW 07:05:36 73° ENE 07:08:18 35° SE
Cosmos 2061 Rocket 4.4 06:59:32 10° N 07:05:49 60° E 07:08:42 32° SE
Cosmos 1758 4.3 07:02:14 10° NNW 07:05:05 42° NNW 07:05:05 42° NNW
Cosmos 1626 3.7 07:07:59 30° E 07:07:59 30° E 07:10:59 10° NNE
ISS -0.8 07:05:32 10° NNW 07:07:56 18° NNE 07:10:17 10° ENE
Cosmos 1975 Rocket 3.1 07:08:32 72° N 07:08:32 72° N 07:12:27 10° N
Cosmos 2227 Rocket 2.3 07:03:02 10° NNW 07:08:42 70° ENE 07:10:57 37° SE
Cosmos 2297 Rocket 2.1 07:05:42 10° NNW 07:11:23 85° WSW 07:12:27 61° SSE
Cosmos 1315 Rocket 3.5 07:07:24 10° NNW 07:10:25 50° NNW 07:10:25 50° NNW
UNK 3.7 07:11:24 69° ESE 07:11:45 74° ENE 07:16:20 10° N
Cosmos 304 Rocket 3.9 07:13:21 61° SE 07:13:37 62° ESE 07:18:22 10° NNE
In-Cosmos 22 4.0 07:13:17 67° SW 07:13:59 77° W 07:19:31 10° N
Cosmos 2369 4.2 07:14:44 43° SSE 07:16:00 52° ESE 07:21:33 10° NNE
ARGOS Delta rocket 4.2 07:14:30 10° NNE 07:19:09 58° E 07:20:01 50° SE
KORONAS-FOTON 4.2 07:20:05 64° N 07:20:05 64° N 07:23:27 10° N
SL-19 R/B 4.2 07:15:49 10° NNE 07:21:23 75° ESE 07:22:32 55° S
Cosmos 1371 Rocket 4.5 07:26:14 41° SSE 07:27:33 52° ESE 07:32:35 10° NNE
Cosmos 1656 4.0 07:26:41 43° W 07:27:39 48° WNW 07:32:59 10° NNE
OAO 2 Rocket 4.5 07:29:25 30° SE 07:29:25 30° SE 07:33:05 10° ESE
Cosmos 2100 Rocket 4.2 07:25:28 10° NNW 07:31:33 51° W 07:32:46 45° SW
Cosmos 1025 Rocket 2.9 07:31:57 77° SSE 07:32:14 84° E 07:36:38 10° N
Cosmos 2251 Rocket 3.6 07:28:06 10° NNW 07:33:11 53° WSW 07:33:16 53° WSW
Cosmos 1802 Rocket 3.9 07:27:45 10° NNW 07:33:50 66° W 07:35:31 47° SSW
Cosmos 2123 Rocket 3.9 07:33:54 47° SSW 07:35:47 77° W 07:42:01 10° N
Cosmos 614 Rocket 3.9 07:32:16 10° NNW 07:37:19 64° WSW 07:37:57 58° SW
IRS-1D 4.0 07:33:31 10° NNE 07:38:49 59° E 07:40:54 35° SSE
Cosmos 1140 Rocket 3.9 07:34:03 10° NNW 07:39:14 60° ENE 07:43:34 15° SSE
IDEFIX/ARIANE 42P 3.5 07:40:54 10° NNE 07:45:54 42° E 07:48:54 22° SSE
Helios 1B rocket 3.2 07:43:52 10° N 07:47:41 37° WNW 07:47:45 37° WNW
COSMOS 2455 3.5 07:42:21 10° NW 07:47:29 34° WSW 07:47:29 34° WSW
Cosmos 1908 3.5 07:45:22 10° NNW 07:48:52 54° WNW 07:48:52 54° WNW
Cosmos 371 Rocket 4.3 07:48:59 30° W 07:49:49 32° WNW 07:54:12 10° N
Cosmos 1340 4.0 07:49:44 27° SE 07:50:57 35° E 07:54:24 10° NNE
Cosmos 332 Rocket 4.3 07:53:44 39° W 07:54:43 45° WNW 07:59:24 10° N
Meteor 1-28 Rocket 3.6 07:53:43 35° SE 07:55:03 60° ENE 07:58:43 10° N
Cosmos 2219 3.6 07:50:29 10° NW 07:55:50 42° WSW 07:56:43 39° SW
Timation 1 Rocket 4.2 07:50:17 10° NNW 07:56:14 71° WSW 08:00:28 20° SSE
SL-16 R/B 3.0 08:00:36 34° SW 08:02:14 40° W 08:08:05 10° NNW
Lacrosse 4 Rocket 1.9 08:02:37 42° WSW 08:03:40 53° WNW 08:08:01 10° NNE
Cosmos 2263 Rocket 3.8 07:58:34 10° N 08:03:45 35° ENE 08:08:54 10° ESE
Cosmos 1544 Rocket 3.8 07:59:46 10° NNW 08:04:01 49° W 08:04:39 45° WSW
Cosmos 1190 Rocket 4.0 07:59:15 10° NNW 08:04:30 86° ENE 08:09:34 11° SSE
ADEOS II 2.1 07:59:35 10° N 08:04:49 67° WNW 08:06:52 37° SW
Cosmos 1953 3.4 08:01:27 10° NNW 08:04:27 29° WNW 08:04:27 29° WNW
Meteor 1-24 Rocket 4.0 08:01:33 22° S 08:05:08 60° E 08:10:28 10° NNE
ARIANE 5 R/B 3.7 08:00:52 10° NNE 08:05:35 36° E 08:09:44 13° SSE
APEX 3.9 08:04:29 10° NNW 08:09:11 65° WSW 08:14:48 11° SSE
Cosmos 1420 Rocket 4.1 08:07:40 29° S 08:10:17 70° ESE 08:15:28 10° NNE
Lacrosse 5 4.3 08:08:29 10° NW 08:11:43 17° NNW 08:14:57 10° NNE
CZ-2D R/B 3.3 08:08:10 10° N 08:12:39 28° WNW 08:14:26 23° W
Cosmos 2228 4.2 08:08:52 10° N 08:12:56 40° ENE 08:16:59 10° SSE
Cosmos 1455 Rocket 4.4 08:10:29 10° NW 08:13:38 23° W 08:13:38 23° W
CZ-4B R/B 4.2 08:11:29 10° NNE 08:16:22 49° E 08:20:30 15° S
Meteor 1-29 4.3 08:15:19 10° NNW 08:18:09 25° WNW 08:18:11 25° WNW
Resurs 1-4 Rocket 3.5 08:14:26 10° NNW 08:18:32 24° WNW 08:20:20 20° W
ADEOS Rocket 3.5 08:12:32 10° S 08:19:56 75° WSW 08:27:46 10° NNW
Cosmos 1536 Rocket 3.9 08:20:10 36° SW 08:21:33 49° W 08:25:53 10° N
BREEZE-M DEB (TANK) 4.3 08:19:53 19° W 08:23:42 63° NNW 08:41:00 10° ENE
Meteor 2-5 Rocket 3.7 08:21:35 26° SSW 08:24:57 73° W 08:30:35 10° N
USA 215 4.3 08:26:21 21° WSW 08:26:21 21° WSW 08:30:15 10° WNW
Cosmos 407 Rocket 3.9 08:21:35 10° NNW 08:26:39 45° WSW 08:29:41 22° SSW
Cosmos 1697 Rocket 3.7 08:24:06 22° WSW 08:26:44 33° WNW 08:31:46 10° N
Cosmos 676 Rocket 4.0 08:23:06 10° NNW 08:28:23 84° ENE 08:33:41 10° SSE
GP-B 3.5 08:24:49 10° N 08:29:02 44° W 08:30:47 29° SW
Atlas Centaur 2 4.1 08:28:30 17° SSW 08:31:27 21° SSE 08:36:17 10° ESE
CZ-4C R/B 3.5 08:29:51 20° S 08:32:40 62° WSW 08:36:47 10° NNW
CBERS-1 4.2 08:28:29 10° N 08:33:28 54° WNW 08:36:21 24° SW
Cosmos 405 2.9 08:31:34 10° N 08:35:05 85° E 08:38:01 14° S
Cosmos 292 Rocket 4.0 08:32:03 19° S 08:35:31 69° ESE 08:40:22 10° NNE
SL-14 R/B 4.3 08:34:44 27° WSW 08:35:44 30° WNW 08:39:16 10° NNW
Cosmos 2233 Rocket 4.3 08:30:06 10° NNW 08:35:58 46° W 08:40:08 19° SSW
USA 281 4.5 08:36:07 18° WSW 08:36:51 19° W 08:41:15 10° WNW
Aureole 2 Rocket 2.4 08:34:43 10° N 08:37:23 56° ENE 08:40:01 10° SSE
Cosmos 1980 Rocket 2.6 08:35:56 23° SW 08:39:11 49° WNW 08:44:42 10° NNE
CENTAUR R/B 3.8 08:34:44 10° S 08:39:41 32° ESE 08:45:21 10° NE
Cosmos 1626 4.0 08:42:30 15° W 08:42:59 15° WNW 08:45:16 10° NW
ISS -3.2 08:41:54 10° NW 08:45:15 61° NNE 08:48:37 10° ESE
Cosmos 2227 Rocket 3.7 08:48:49 10° WNW 08:52:04 16° W 08:52:41 15° WSW
Cosmos 1452 Rocket 3.5 08:49:49 15° SSW 08:54:16 88° WNW 08:59:36 10° NNE
Cosmos 2297 Rocket 4.1 08:53:20 10° W 08:54:12 11° W 08:54:12 11° W
Cosmos 1954 Rocket 4.1 08:49:53 10° NNW 08:55:02 55° WSW 09:00:11 10° S
CZ-2D R/B 3.6 08:52:55 10° NNE 08:57:21 86° E 09:01:47 10° SSW
Cosmos 1300 3.8 08:55:01 10° NNW 08:58:11 25° W 08:59:48 19° SW
Cosmos 220 Rocket 4.3 08:56:53 18° SW 08:59:58 53° WNW 09:04:19 10° N
IRS-1C 4.5 09:00:15 10° N 09:05:24 50° WNW 09:10:04 12° SW
CZ-2C R/B 3.0 09:01:27 10° NNE 09:06:33 62° E 09:11:41 10° S
Spot 4 Rocket 4.1 09:01:23 10° NNE 09:06:34 84° ESE 09:11:42 10° SSW
Cosmos 1346 Rocket 2.7 09:04:10 10° SSW 09:08:03 81° W 09:11:59 10° N
Cosmos 389 Rocket 3.2 09:05:22 10° N 09:08:48 55° ENE 09:12:11 10° SSE
ALOS 3.7 09:07:35 10° NNE 09:11:55 37° E 09:16:14 10° SSE
OAO 2 Rocket 3.9 09:08:20 13° WSW 09:12:42 43° S 09:17:43 10° ESE
MSX 4.3 09:08:13 10° N 09:13:44 47° WNW 09:19:13 10° SW
Cosmos 1455 2.2 09:10:24 10° N 09:14:15 84° E 09:18:06 10° S
SL-16 R/B 2.2 09:08:52 10° SSW 09:14:32 88° WNW 09:20:15 10° NNE
Cosmos 1110 Rocket 4.3 09:09:34 10° S 09:14:42 68° ESE 09:19:51 10° NNE
Cosmos 1850 Rocket 4.1 09:13:45 10° NNW 09:19:08 90° SW 09:24:29 10° SSE
Cosmos 1703 3.6 09:19:03 10° S 09:22:53 69° E 09:26:45 10° NNE
SL-08 R/B 3.7 09:18:27 10° S 09:22:54 43° W 09:27:20 10° NNW
IDEFIX/ARIANE 42P 3.8 09:20:59 10° NNW 09:25:13 25° WNW 09:29:28 10° WSW
Cosmos 1892 Rocket 3.9 09:21:58 10° SSW 09:26:09 48° W 09:30:22 10° N
Meteor 2-1 Rocket 4.4 09:21:13 10° N 09:26:56 82° E 09:32:29 10° S
Cosmos 1741 Rocket 4.0 09:24:28 10° NNW 09:29:42 76° WSW 09:34:54 10° SSE
NOSS 3-2 (C) 3.7 09:25:56 10° SSW 09:31:20 64° ESE 09:37:30 10° NE
Cosmos 1484 Rocket 4.3 09:27:56 10° NNE 09:31:38 38° E 09:35:14 10° SSE
Cosmos 2084 3.9 09:30:02 10° NNW 09:34:31 74° NE 09:39:03 10° SE
USA 32 4.2 09:31:22 10° NNW 09:36:31 57° W 09:41:38 10° SSW
Meteor 2-10 Rocket 4.5 09:34:42 10° NNW 09:39:40 32° W 09:44:29 10° SSW
CZ-2C R/B 3.0 09:36:57 10° N 09:40:55 58° WNW 09:44:52 10° SSW
Okean 1-7 Rocket 3.8 09:36:42 10° SSW 09:41:11 59° W 09:45:42 10° N
Cosmos 2322 Rocket 2.3 09:36:11 10° SSW 09:41:50 69° WNW 09:47:32 10° NNE
